Bloomington, IN

12:05 PM EST on February 14, 2016 (GMT -0500)
Monroe County

Weather History for KBMG - January, 2012

Change the Weather History Date:

Tuesday, January 31, 2012

  Actual Average Record
Temperature  
Mean Temperature 53 °F 30 °F  
Max Temperature 57 °F 40 °F 63 °F (2016)
Min Temperature 49 °F 21 °F -22 °F (2004)
Degree Days  
Heating Degree Days 12 35  
Month to date heating degree days 952 1107  
Since 1 July heating degree days 2690 3175  
Cooling Degree Days 0 0  
Month to date cooling degree days 0 0  
Year to date cooling degree days 0 0  
Growing Degree Days 4 (Base 50)    
Moisture  
Dew Point 40 °F    
Average Humidity 66    
Maximum Humidity 93    
Minimum Humidity 38    
Precipitation  
Precipitation 0.12 in 0.10 in 1.35 in (2002)
Month to date precipitation 3.14 3.31  
Year to date precipitation 3.14 3.31  
Sea Level Pressure  
Sea Level Pressure 30.03 in    
Wind  
Wind Speed 14 mph (SW)    
Max Wind Speed 23 mph    
Max Gust Speed 33 mph    
Visibility 9 miles    
Events Rain    
T = Trace of Precipitation, MM = Missing Value Source: NWS Daily Summary

Daily Weather History Graph

Daily Weather History Graph

Search for Another Location

Airport or City:

Trip Planner

Search our weather history database for the weather conditions in past years. The results will help you decide how hot, cold, wet, or windy it might be!

Date:

Astronomy

Jan. 31, 2012 Rise Set
Actual Time 7:54 AM EST 6:05 PM EST
Civil Twilight 7:26 AM EST 6:34 PM EST
Nautical Twilight 6:54 AM EST 7:06 PM EST
Astronomical Twilight 6:22 AM EST 7:37 PM EST
Moon 11:55 AM EST (1/31) 1:41 AM EST (1/31)
Length of Visible Light 11h 07m
Length of Day
10h 11m
First Quarter, 55% of the Moon is Illuminated
Jan 31
First Quarter
Feb 7
Full
Feb 14
Last Quarter
Feb 21
New
Feb 29
First Quarter

Hourly Weather History & Observations

Time (EST) Temp. Dew Point Humidity Pressure Visibility Wind Dir Wind Speed Gust Speed Precip Events Conditions
12:53 AM 51.1 °F 26.1 °F 38% 30.08 in 10.0 mi SW 17.3 mph 23.0 mph N/A   Clear
1:53 AM 50.0 °F 26.1 °F 39% 30.08 in 10.0 mi SW 15.0 mph 20.7 mph N/A   Clear
2:53 AM 50.0 °F 27.0 °F 41% 30.08 in 10.0 mi SW 12.7 mph - N/A   Clear
3:53 AM 51.1 °F 27.0 °F 39% 30.07 in 10.0 mi SW 13.8 mph 21.9 mph N/A   Partly Cloudy
4:53 AM 51.1 °F 27.0 °F 39% 30.07 in 10.0 mi SW 16.1 mph 21.9 mph N/A   Overcast
5:53 AM 50.0 °F 27.0 °F 41% 30.08 in 10.0 mi SW 16.1 mph 23.0 mph N/A   Overcast
6:53 AM 50.0 °F 27.0 °F 41% 30.08 in 10.0 mi SW 18.4 mph 24.2 mph N/A   Overcast
7:53 AM 50.0 °F 28.0 °F 43% 30.08 in 10.0 mi SSW 13.8 mph 23.0 mph N/A   Overcast
8:53 AM 51.1 °F 28.9 °F 43% 30.09 in 10.0 mi SSW 12.7 mph 24.2 mph N/A   Mostly Cloudy
9:53 AM 53.1 °F 30.9 °F 43% 30.09 in 10.0 mi SW 17.3 mph 28.8 mph N/A   Mostly Cloudy
10:53 AM 55.0 °F 34.0 °F 45% 30.08 in 10.0 mi SW 13.8 mph 24.2 mph N/A   Partly Cloudy
11:53 AM 57.0 °F 37.9 °F 49% 30.07 in 10.0 mi SW 17.3 mph 27.6 mph N/A   Mostly Cloudy
12:53 PM 55.9 °F 39.0 °F 53% 30.05 in 10.0 mi SW 17.3 mph 24.2 mph N/A   Overcast
1:53 PM 53.1 °F 43.0 °F 69% 30.03 in 6.0 mi SSW 11.5 mph 25.3 mph 0.00 in Rain Light Rain
2:53 PM 51.1 °F 46.0 °F 83% 30.01 in 10.0 mi SSW 12.7 mph - 0.00 in   Overcast
3:12 PM 51.8 °F 44.6 °F 76% 30.00 in 10.0 mi South 11.5 mph - N/A   Overcast
3:53 PM 54.0 °F 43.0 °F 66% 29.99 in 10.0 mi SSW 10.4 mph 20.7 mph N/A   Overcast
4:53 PM 54.0 °F 44.1 °F 69% 29.98 in 10.0 mi SSW 13.8 mph - N/A   Overcast
5:30 PM 53.6 °F 46.4 °F 77% 29.98 in 7.0 mi SSW 13.8 mph - 0.00 in Rain Light Rain
5:53 PM 53.1 °F 46.9 °F 80% 29.99 in 10.0 mi SSW 17.3 mph 25.3 mph 0.00 in   Overcast
6:53 PM 54.0 °F 48.0 °F 80% 29.99 in 10.0 mi SSW 10.4 mph - N/A   Overcast
7:53 PM 54.0 °F 50.0 °F 86% 30.01 in 5.0 mi SSW 10.4 mph 19.6 mph 0.06 in Rain Rain
8:36 PM 53.6 °F 51.8 °F 94% 30.01 in 2.5 mi SW 11.5 mph 19.6 mph 0.04 in Rain Rain
8:42 PM 53.6 °F 51.8 °F 94% 30.01 in 2.5 mi WSW 11.5 mph - 0.05 in Rain Rain
8:51 PM 53.6 °F 51.8 °F 94% 30.01 in 3.0 mi SW 12.7 mph - 0.06 in Rain Light Rain
8:53 PM 54.0 °F 51.1 °F 90% 30.01 in 3.0 mi SW 13.8 mph - 0.06 in Rain Light Rain
9:53 PM 54.0 °F 51.1 °F 90% 29.99 in 10.0 mi SW 15.0 mph 24.2 mph 0.00 in   Overcast
10:38 PM 53.6 °F 50.0 °F 88% 29.99 in 10.0 mi SSW 16.1 mph 23.0 mph N/A   Overcast
10:53 PM 54.0 °F 50.0 °F 86% 29.99 in 10.0 mi SW 13.8 mph 23.0 mph N/A   Overcast
11:23 PM 55.4 °F 48.2 °F 77% 29.98 in 10.0 mi SW 16.1 mph 24.2 mph N/A   Overcast
11:53 PM 55.0 °F 46.9 °F 74% 29.98 in 10.0 mi SW 16.1 mph 24.2 mph N/A   Overcast